Location: Unspecified
(34.0583°N, 0.0000°E)
Time: 02:55:02
(UTC+00:00)

DAPP 2525 - Visible Passes

Search period start: 04 April 2026 00:00
Search period end: 14 April 2026 00:00
Orbit: 726 x 815 km, 98.9° (Epoch: 28 March)

Date Brightness Start Highest point End Pass type
(mag) Time Alt. Az. Time Alt. Az. Time Alt. Az.
4 Apr 8.8 02:20:01 10° N 02:21:30 19° N 02:21:30 19° N visible
5 Apr 9.2 01:44:51 10° NNE 01:45:52 16° NNE 01:45:52 16° NNE visible
5 Apr 8.8 03:25:04 10° NNW 03:26:09 14° NNW 03:26:09 14° NNW visible
6 Apr 8.5 02:48:42 10° N 02:50:31 20° NNW 02:50:31 20° NNW visible
7 Apr 8.7 02:13:04 10° NNE 02:14:52 22° NNE 02:14:52 22° NNE visible
8 Apr 9.2 01:38:02 10° NNE 01:39:12 16° NE 01:39:12 16° NE visible
8 Apr 8.6 03:17:50 10° NNW 03:19:31 16° NW 03:19:31 16° NW visible
9 Apr 8.4 02:41:40 10° N 02:43:51 24° NNW 02:43:51 24° NNW visible
10 Apr 8.6 02:06:10 10° NNE 02:08:12 24° NNE 02:08:12 24° NNE visible
10 Apr 8.8 03:48:13 10° NW 03:48:30 10° NW 03:48:30 10° NW visible
11 Apr 9.1 01:31:17 10° NNE 01:32:31 16° NE 01:32:31 16° NE visible
11 Apr 8.4 03:10:40 10° NNW 03:12:50 20° NW 03:12:50 20° NW visible
12 Apr 8.2 02:34:39 10° N 02:37:10 27° N 02:37:10 27° N visible
13 Apr 8.5 01:59:17 10° NNE 02:01:31 25° NNE 02:01:31 25° NNE visible
13 Apr 8.7 03:40:29 10° NW 03:41:49 13° NW 03:41:49 13° NW visible
